Hourly Data Report for March 29, 2020

MIRAMICHI RCS
NEW BRUNSWICK
Current Station Operator: ECCC - MSC

47°00'34.000" N
65°27'54.000" W
33.00 m
8100989
71744
ACQ

Download Data

Hourly Data (March 2020)
Hourly Data Report for March 29, 2020
TIME
LST
Temp Definition
°C
Dew Point Definition
°C
Rel Hum Definition
%
Precip. Amount Definition
mm

Wind Dir Definition
10's deg

Wind Spd Definition
km/h
Visibility Definition
km
Stn Press Definition
kPa
Hmdx Definition


Wind Chill Definition


Weather Definition


00:00 -4.0 -11.1 58 LegendMM 30 1   101.88   -4 LegendNANA
01:00 -4.6 -10.0 66 LegendMM 23 2   101.88   -5 LegendNANA
02:00 -5.5 -10.0 71 LegendMM 27 5   101.95   -8 LegendNANA
03:00 -4.3 -10.4 63 LegendMM 27 7   101.96   -7 LegendNANA
04:00 -6.5 -10.6 73 LegendMM   0   102.00     LegendNANA
05:00 -7.7 -10.5 80 LegendMM 27 4   102.02   -10 LegendNANA
06:00 -8.9 -12.3 76 LegendMM 14 2   102.12   -10 LegendNANA
07:00 -6.9 -10.6 75 LegendMM 28 2   102.18   -8 LegendNANA
08:00 -3.3 -9.5 62 LegendMM 25 3   102.25   -5 LegendNANA
09:00 1.4 -10.2 41 LegendMM 16 2   102.30     LegendNANA
10:00 5.0 -11.6 29 LegendMM 10 2   102.33     LegendNANA
11:00 5.0 -7.5 40 LegendMM 8 11   102.30     LegendNANA
12:00 5.0 -7.1 41 LegendMM 9 13   102.32     LegendNANA
13:00 5.7 -8.0 37 LegendMM 8 14   102.24     LegendNANA
14:00 7.0 -9.5 30 LegendMM 6 10   102.18     LegendNANA
15:00 5.5 -4.8 47 LegendMM 8 15   102.17     LegendNANA
16:00 4.0 -5.6 50 LegendMM 5 16   102.20     LegendNANA
17:00 3.3 -4.5 56 LegendMM 6 15   102.19     LegendNANA
18:00 2.1 -4.5 62 LegendMM 5 10   102.20     LegendNANA
19:00 1.3 -5.8 59 LegendMM 7 15   102.20     LegendNANA
20:00 0.7 -6.1 60 LegendMM 8 12   102.25     LegendNANA
21:00 0.1 -5.1 68 LegendMM 5 10   102.24     LegendNANA
22:00 -0.1 -4.0 75 LegendMM 5 12   102.26   -4 LegendNANA
23:00 -0.4 -3.9 77 LegendMM 5 11   102.31   -4 LegendNANA

Notes on Data Quality.

Legend

  • E = Estimated
  • M = Missing
  • NA = Not Available*
  • [empty] = Indicates an unobserved value
Date modified: